Date String (YYYY-MM-DD hh:mm:ss) UTC,Instrument flags,absolute air pressure of the measurement (hPa),sample flow rate (lpm),inlet stack bypass flow (lpm),air temperature of the measurement (°C),ambient temperature measured by the external sensor (°C),aerosol sample conditioner tube jacket temperature (°C),OPC LED temperature (°C),internal box temperature (°C),relative humidity of the measurement (%),span deviation,mass concentration of particles derived from Lorenz-Mie calculation of OPC scattering (μg/m³),mass concentration of particles derived from Lorenz-Mie calculation of OPC scattering (μg/m³),mass concentration of particles derived from Lorenz-Mie calculation of OPC scattering (μg/m³)
DateTimeUTC,F1_M11,P_M11,Q1_M11,Q2_M11,T1_M11,T2_M11,T3_M11,T4_M11,T5_M11,U1_M11,ZSPAN_M11,X2_M11,X0_M11,X1_M11
2023-07-15 23:00:00,SystemResetWarning,0834.4,5.00,000.00,029.1,027.6,000.0,037.4,030.8,27.1,0000.0,0006.20,0015.65,0005.44
2023-07-15 23:01:00,SystemResetWarning,0834.4,5.00,000.00,029.2,027.8,000.0,037.4,030.8,29.5,0000.0,0006.15,0014.74,0005.42
2023-07-15 23:02:00,SystemResetWarning,0834.4,4.98,000.00,029.2,026.6,000.0,037.3,030.7,32.3,0000.0,0006.12,0013.44,0005.41
2023-07-15 23:03:00,SystemResetWarning,0834.3,5.01,000.00,029.1,025.2,000.0,037.2,030.5,31.9,0000.0,0006.11,0012.67,0005.39
2023-07-15 23:04:00,SystemResetWarning,0834.3,5.01,000.00,029.0,025.0,000.0,037.2,030.3,31.5,0000.0,0006.09,0012.87,0005.39
2023-07-15 23:05:00,SystemResetWarning,0834.4,5.01,000.00,029.0,025.3,000.0,037.2,030.2,32.9,0000.0,0006.06,0012.85,0005.40
2023-07-15 23:06:00,SystemResetWarning,0834.4,4.98,000.00,028.9,025.8,000.0,037.3,030.3,33.4,0000.0,0006.05,0012.76,0005.40
2023-07-15 23:07:00,SystemResetWarning,0834.5,5.00,000.00,028.9,026.3,000.0,037.3,030.4,33.5,0000.2,0006.03,0012.76,0005.40
2023-07-15 23:08:00,SystemResetWarning,0834.5,5.01,000.00,029.0,026.7,000.0,037.3,030.5,34.0,0000.2,0006.04,0012.68,0005.42
2023-07-15 23:09:00,SystemResetWarning,0834.6,5.00,000.00,029.0,027.1,000.0,037.3,030.6,34.3,0000.0,0006.02,0012.93,0005.42
2023-07-15 23:10:00,SystemResetWarning,0834.6,4.99,000.00,029.1,027.4,000.0,037.4,030.7,34.9,-000.0,0006.00,0012.90,0005.42
2023-07-15 23:11:00,SystemResetWarning,0834.5,5.01,000.00,029.1,027.7,000.0,037.4,030.8,34.7,0000.1,0005.99,0012.47,0005.41
2023-07-15 23:12:00,SystemResetWarning,0834.5,4.98,000.00,029.2,026.7,000.0,037.3,030.7,34.3,0000.1,0006.08,0013.41,0005.40
2023-07-15 23:13:00,SystemResetWarning,0834.5,5.00,000.00,029.2,025.2,000.0,037.2,030.5,33.6,0000.3,0006.11,0014.03,0005.39
2023-07-15 23:14:00,SystemResetWarning,0834.4,5.01,000.00,029.1,024.8,000.0,037.1,030.3,33.0,0001.0,0006.14,0014.49,0005.38
2023-07-15 23:15:00,SystemResetWarning,0834.4,5.01,000.00,029.0,025.1,000.0,037.2,030.2,32.9,0000.9,0006.22,0014.30,0005.38
2023-07-15 23:16:00,SystemResetWarning,0834.5,5.00,000.00,029.0,025.5,000.0,037.2,030.2,32.5,0000.7,0006.29,0013.90,0005.37
2023-07-15 23:17:00,SystemResetWarning,0834.5,5.00,000.00,029.0,026.0,000.0,037.2,030.3,33.1,0000.2,0006.42,0014.46,0005.38
2023-07-15 23:18:00,SystemResetWarning,0834.5,5.00,000.00,029.0,026.5,000.0,037.3,030.5,33.2,0000.8,0006.51,0015.62,0005.38
2023-07-15 23:19:00,SystemResetWarning,0834.5,5.00,000.00,029.1,026.9,000.0,037.3,030.6,32.2,0000.6,0006.53,0015.65,0005.38
2023-07-15 23:20:00,SystemResetWarning,0834.5,5.00,000.00,029.1,027.3,000.0,037.3,030.6,31.7,0000.1,0006.60,0016.87,0005.39
2023-07-15 23:21:00,SystemResetWarning,0834.5,5.00,000.00,029.2,027.6,000.0,037.4,030.7,31.0,0000.5,0006.70,0018.28,0005.41
2023-07-15 23:22:00,SystemResetWarning,0834.5,4.99,000.00,029.2,027.8,000.0,037.4,030.8,31.1,-000.4,0006.78,0018.77,0005.44
2023-07-15 23:23:00,SystemResetWarning,0834.5,4.99,000.00,029.3,027.2,000.0,037.4,030.8,31.4,-000.3,0006.77,0017.95,0005.46
2023-07-15 23:24:00,SystemResetWarning,0834.5,5.01,000.00,029.2,025.6,000.0,037.3,030.5,31.5,-000.4,0006.79,0018.11,0005.48
2023-07-15 23:25:00,SystemResetWarning,0834.5,5.01,000.00,029.1,024.9,000.0,037.2,030.4,32.1,-000.9,0006.80,0017.89,0005.49
2023-07-15 23:26:00,SystemResetWarning,0834.4,5.00,000.00,029.0,025.1,000.0,037.2,030.1,32.8,-001.1,0006.83,0018.51,0005.51
2023-07-15 23:27:00,SystemResetWarning,0834.5,5.01,000.00,029.0,025.5,000.0,037.3,030.2,33.6,-001.3,0006.86,0018.73,0005.52
2023-07-15 23:28:00,SystemResetWarning,0834.5,5.00,000.00,029.0,026.0,000.0,037.3,030.3,33.8,-001.1,0006.79,0018.33,0005.51
2023-07-15 23:29:00,SystemResetWarning,0834.5,5.00,000.00,029.0,026.5,000.0,037.3,030.4,33.6,-001.0,0006.75,0018.47,0005.50
2023-07-15 23:30:00,SystemResetWarning,0834.5,5.00,000.00,029.0,026.9,000.0,037.3,030.6,33.9,-001.1,0006.76,0018.34,0005.49
2023-07-15 23:31:00,SystemResetWarning,0834.5,5.00,000.00,029.1,027.3,000.0,037.4,030.6,34.0,-001.8,0006.73,0017.05,0005.46
2023-07-15 23:32:00,SystemResetWarning,0834.5,5.00,000.00,029.1,027.6,000.0,037.4,030.7,33.6,-000.7,0006.67,0015.49,0005.44
2023-07-15 23:33:00,SystemResetWarning,0834.5,5.00,000.00,029.2,027.8,000.0,037.4,030.8,33.4,-000.1,0006.62,0015.55,0005.41
2023-07-15 23:34:00,SystemResetWarning,0834.5,4.99,000.00,029.2,027.5,000.0,037.4,030.9,32.3,-001.1,0006.60,0015.61,0005.40
2023-07-15 23:35:00,SystemResetWarning,0834.4,5.00,000.00,029.2,025.9,000.0,037.3,030.6,33.3,-000.7,0006.52,0014.97,0005.38
2023-07-15 23:36:00,SystemResetWarning,0834.4,5.00,000.00,029.1,025.0,000.0,037.2,030.4,32.5,0000.0,0006.50,0014.56,0005.39
2023-07-15 23:37:00,SystemResetWarning,0834.4,5.01,000.00,029.0,025.1,000.0,037.2,030.2,32.4,0000.0,0006.45,0013.86,0005.40
2023-07-15 23:38:00,SystemResetWarning,0834.3,5.01,000.00,028.9,025.4,000.0,037.2,030.2,31.4,0000.0,0006.44,0013.51,0005.43
2023-07-15 23:39:00,SystemResetWarning,0834.4,5.00,000.00,028.9,025.9,000.0,037.3,030.3,31.3,0000.0,0006.48,0013.61,0005.46
2023-07-15 23:40:00,SystemResetWarning,0834.3,5.00,000.00,028.9,026.4,000.0,037.3,030.4,30.6,0000.0,0006.56,0013.21,0005.48
2023-07-15 23:41:00,SystemResetWarning,0834.3,5.00,000.00,029.0,026.9,000.0,037.3,030.5,30.3,0000.0,0006.62,0014.17,0005.49
2023-07-15 23:42:00,SystemResetWarning,0834.3,5.00,000.00,029.0,027.2,000.0,037.3,030.7,32.1,0000.0,0006.69,0014.36,0005.52
2023-07-15 23:43:00,SystemResetWarning,0834.3,4.99,000.00,029.1,027.5,000.0,037.4,030.8,32.0,0000.0,0006.76,0014.32,0005.55
2023-07-15 23:44:00,SystemResetWarning,0834.3,5.00,000.00,029.1,027.8,000.0,037.4,030.8,31.3,0000.4,0006.82,0013.93,0005.59
2023-07-15 23:45:00,SystemResetWarning,0834.3,4.99,000.00,029.2,026.9,000.0,037.3,030.7,30.9,0000.5,0006.85,0013.98,0005.61
2023-07-15 23:46:00,SystemResetWarning,0834.3,5.01,000.00,029.1,025.4,000.0,037.2,030.5,31.3,0000.1,0006.89,0014.09,0005.63
2023-07-15 23:47:00,SystemResetWarning,0834.3,5.00,000.00,029.0,025.0,000.0,037.2,030.4,32.0,-000.5,0006.94,0014.26,0005.64
2023-07-15 23:48:00,SystemResetWarning,0834.3,5.01,000.00,028.9,025.2,000.0,037.2,030.2,32.0,-000.5,0006.95,0014.31,0005.64
2023-07-15 23:49:00,SystemResetWarning,0834.6,5.01,000.00,028.9,025.6,000.0,037.2,030.3,31.8,-000.2,0006.91,0014.48,0005.60
2023-07-15 23:50:00,SystemResetWarning,0834.4,4.99,000.00,028.9,026.1,000.0,037.3,030.4,32.3,0000.0,0006.81,0015.86,0005.56
2023-07-15 23:51:00,SystemResetWarning,0834.4,5.00,000.00,028.9,026.6,000.0,037.3,030.5,32.5,0000.0,0006.74,0016.23,0005.53
2023-07-15 23:52:00,SystemResetWarning,0834.3,5.00,000.00,029.0,027.0,000.0,037.3,030.6,32.6,0000.3,0006.66,0016.47,0005.51
2023-07-15 23:53:00,SystemResetWarning,0834.3,5.00,000.00,029.0,027.3,000.0,037.3,030.7,32.5,-000.5,0006.63,0017.26,0005.51
2023-07-15 23:54:00,SystemResetWarning,0834.4,5.00,000.00,029.1,027.6,000.0,037.3,030.8,32.8,-000.6,0006.56,0017.90,0005.49
2023-07-15 23:55:00,SystemResetWarning,0834.4,4.98,000.00,029.1,027.0,000.0,037.3,030.8,32.2,-000.1,0006.49,0017.83,0005.46
2023-07-15 23:56:00,SystemResetWarning,0834.4,5.00,000.00,029.0,025.4,000.0,037.2,030.4,31.9,0000.0,0006.46,0017.68,0005.43
2023-07-15 23:57:00,SystemResetWarning,0834.4,5.00,000.00,028.9,024.8,000.0,037.1,030.3,31.6,0000.0,0006.45,0017.62,0005.42
2023-07-15 23:58:00,SystemResetWarning,0834.4,5.01,000.00,028.9,025.0,000.0,037.1,030.1,31.9,0000.0,0006.47,0018.53,0005.42
2023-07-15 23:59:00,SystemResetWarning,0834.4,5.01,000.00,028.8,025.4,000.0,037.1,030.1,32.3,-000.5,0006.47,0018.53,0005.44
